Location: Misciano
(43.5000°N, 11.9500°E)
Time: 20:52:34
(UTC+00:00)

Ariane Rocket - Pass Details

Date: 13 August 2020
Orbit: 760 x 770 km, 98.7° (Epoch: 21 September)

Event Time Altitude Azimuth Distance (km) Brightness Sun altitude
Rises 18:44:18 0° 162° (SSE) 3,215 5.8 -5.2°
Reaches altitude 10° 18:46:35 10° 162° (SSE) 2,292 5.1 -5.6°
Maximum altitude 18:51:38 83° 74° (ENE) 773 3.0 -6.4°
Drops below altitude 10° 18:56:43 10° 348° (NNW) 2,304 6.1 -7.2°
Sets 18:59:02 0° 347° (NNW) 3,233 6.9 -7.6°
